DW8427 Weather Reports


Display with metric or nautical units.
time (UTC)temp
F
wind
direction
speed
MPH
gust
MPH
rain 1hr
in
rain 24hr
in
rain mn
in
humidity
%
barometer
mb
20260506164524 62 91 0.0 0.0 0.00 0.00 0.00 72 1020.5
20260506163021 61 107 0.0 0.0 0.00 0.00 0.00 74 1020.4
20260506161518 60 124 0.0 1.0 0.00 0.00 0.00 76 1020.4
20260506160017 59 153 0.0 0.0 0.00 0.00 0.00 77 1020.4
20260506154513 59 127 0.0 0.0 0.00 0.00 0.00 78 1020.4
20260506153012 58 106 0.0 0.0 0.00 0.00 0.00 78 1020.4
20260506151511 58 116 0.0 1.0 0.00 0.00 0.00 78 1020.4
20260506150011 57 122 0.0 0.0 0.00 0.00 0.00 80 1020.3
20260506144509 57 148 0.0 1.0 0.00 0.00 0.00 80 1020.3
20260506143017 57 117 0.0 1.0 0.00 0.00 0.00 82 1020.2
20260506141508 57 81 0.0 0.0 0.00 0.00 0.00 82 1020.0
20260506140005 57 110 0.0 1.0 0.00 0.00 0.00 82 1019.9
20260506134503 57 130 0.0 1.0 0.00 0.00 0.00 82 1019.8
20260506133001 57 136 0.0 1.0 0.00 0.00 0.00 82 1019.7
20260506131559 57 90 0.0 0.0 0.00 0.00 0.00 82 1019.6
20260506124556 57 113 0.0 0.0 0.00 0.00 0.00 82 1019.5
20260506123054 57 115 0.0 0.0 0.00 0.00 0.00 82 1019.5
20260506121557 57 137 0.0 0.0 0.00 0.00 0.00 82 1019.3
20260506120053 57 98 0.0 0.0 0.00 0.00 0.00 82 1019.2
20260506114553 57 124 0.0 0.0 0.00 0.00 0.00 82 1019.3
20260506113051 57 125 0.0 0.0 0.00 0.00 0.00 81 1019.2
20260506111548 57 136 0.0 1.0 0.00 0.00 0.00 81 1019.1
20260506110047 57 139 0.0 0.0 0.00 0.00 0.00 81 1019.0
20260506104546 57 120 0.0 1.0 0.00 0.00 0.00 80 1018.9
20260506103052 57 119 0.0 0.0 0.00 0.00 0.00 79 1018.8
20260506101543 57 128 0.0 0.0 0.00 0.00 0.00 80 1018.7
20260506100044 57 95 0.0 0.0 0.00 0.00 0.00 80 1018.6
20260506094541 57 147 0.0 0.0 0.00 0.00 0.00 79 1018.6
20260506093040 57 134 0.0 0.0 0.00 0.00 0.00 79 1018.6
20260506091540 57 113 0.0 0.0 0.00 0.00 0.00 80 1018.6
20260506090046 58 120 0.0 0.0 0.00 0.00 0.00 80 1018.6
20260506084545 58 143 0.0 0.0 0.00 0.00 0.00 80 1018.6
20260506083036 58 143 0.0 0.0 0.00 0.00 0.00 80 1018.6
20260506081639 58 96 0.0 1.0 0.00 0.00 0.00 80 1018.6
20260506073028 59 108 0.0 0.0 0.00 0.07 0.00 79 1018.4
20260506071527 59 127 0.0 0.0 0.00 0.07 0.00 79 1018.2
20260506061540 59 223 0.0 0.0 0.00 0.13 0.07 78 1017.6
20260506044517 61 94 0.0 0.0 0.00 0.33 0.07 77 1016.8
20260506043017 61 96 0.0 0.0 0.00 0.33 0.07 76 1016.7
20260506041507 61 137 0.0 1.0 0.00 0.33 0.07 76 1016.3
20260506040005 61 115 0.0 1.0 0.00 0.33 0.07 76 1016.2
20260506034504 62 118 0.0 1.0 0.00 0.56 0.07 74 1016.3
20260506033004 62 116 0.0 1.0 0.00 0.56 0.07 74 1016.1
20260506031501 62 98 0.0 2.0 0.00 0.56 0.07 74 1015.8
20260506030100 62 82 0.0 1.0 0.00 0.56 0.07 73 1015.7
20260506024601 62 133 0.0 2.0 0.00 0.65 0.07 72 1015.5
20260506023100 62 103 0.0 3.0 0.00 0.65 0.07 72 1015.3
20260506021605 63 120 0.0 2.0 0.00 0.65 0.07 72 1015.2
20260506020057 63 96 0.0 7.0 0.00 0.65 0.07 72 1015.1
20260506014557 63 137 2.0 8.0 0.00 0.76 0.07 70 1015.1
20260506013105 64 143 0.0 6.0 0.00 0.76 0.07 70 1015.0
20260506011606 64 160 1.0 6.0 0.00 0.76 0.07 69 1015.0
20260506010055 64 134 1.0 8.0 0.00 0.76 0.07 69 1014.9
20260506004553 64 88 0.0 5.0 0.00 0.82 0.07 69 1014.8
20260506003053 64 112 0.0 2.0 0.00 0.82 0.07 68 1014.7
20260506001554 64 129 1.0 4.0 0.00 0.82 0.07 68 1014.8
20260506000052 64 121 0.0 1.0 0.00 0.82 0.07 68 1014.6
20260505234602 64 129 0.0 4.0 0.00 0.91 0.07 67 1014.6
20260505233051 64 153 0.0 3.0 0.00 0.91 0.07 67 1014.6
20260505231605 64 120 0.0 5.0 0.00 0.91 0.07 66 1014.6
20260505230053 65 116 0.0 5.0 0.00 0.91 0.07 66 1014.7
20260505224550 65 103 2.0 6.0 0.00 0.96 0.07 64 1014.7
20260505223057 66 126 0.0 0.0 0.00 0.96 0.07 61 1014.8
20260505221556 67 297 0.0 0.0 0.00 0.96 0.07 61 1015.0
20260505220045 65 80 0.0 0.0 0.00 0.96 0.07 65 1015.0
20260505214603 64 298 0.0 3.0 0.00 0.98 0.07 66 1015.1
20260505213043 65 291 0.0 3.0 0.00 0.98 0.07 68 1015.2
20260505211543 64 117 0.0 1.0 0.00 0.98 0.07 68 1015.3
20260505210044 65 327 0.0 3.0 0.00 0.98 0.07 68 1015.3
20260505204542 65 70 0.0 3.0 0.00 0.98 0.07 67 1015.3
20260505203039 63 40 0.0 5.0 0.00 0.98 0.07 70 1015.3
20260505201538 63 210 0.0 3.0 0.00 0.98 0.07 70 1015.4
20260505200043 63 115 0.0 0.0 0.00 0.98 0.07 70 1015.5
20260505194533 62 139 0.0 3.0 0.00 1.01 0.07 70 1015.7
20260505193034 62 245 0.0 2.0 0.00 1.01 0.07 72 1015.7
20260505191531 61 226 0.0 0.0 0.00 1.01 0.07 73 1015.7
20260505190033 62 230 0.0 1.0 0.00 1.01 0.07 73 1015.7
20260505184529 61 101 0.0 1.0 0.00 1.01 0.07 74 1015.6
20260505183029 59 89 0.0 0.0 0.00 1.01 0.07 76 1015.6
20260505181521 58 91 0.0 3.0 0.00 1.01 0.07 78 1015.6
20260505180023 59 138 0.0 0.0 0.00 1.01 0.07 79 1015.5
20260505174516 57 150 0.0 1.0 0.00 1.03 0.07 81 1015.4
20260505173014 56 201 0.0 3.0 0.00 1.03 0.07 82 1015.2
20260505171512 56 113 0.0 3.0 0.00 1.03 0.07 84 1015.4
20260505170013 55 117 0.0 3.0 0.00 1.03 0.07 85 1015.4